Location: *
(46.1200°N, 11.2700°E)
Time: 20:35:16
(UTC+00:00)

CSL-04 Rocket - Pass Details

Date: 02 March 2021
Orbit: 805 x 861 km, 98.9° (Epoch: 17 April)

Event Time Altitude Azimuth Distance (km) Brightness Sun altitude
Rises 18:38:05 0° 173° (S) 3,424 6.7 -17.3°
Reaches altitude 10° 18:40:29 10° 176° (S) 2,490 6.0 -17.7°
Maximum altitude 18:45:58 64° 258° (WSW) 951 4.2 -18.6°
Drops below altitude 10° 18:51:28 10° 340° (NNW) 2,489 6.5 -19.5°
Sets 18:53:52 0° 343° (NNW) 3,422 7.2 -20.0°
